Weather History for Fort Benning, GA

Change the Weather History Date:

Wednesday, February 20, 2013

  Actual Average Record
Temperature  
Mean Temperature 44 °F -  
Max Temperature 58 °F 62 °F 77 °F (2011)
Min Temperature 29 °F 37 °F 24 °F (2009)
Degree Days  
Heating Degree Days 22    
Moisture  
Dew Point 22 °F    
Average Humidity 49    
Maximum Humidity 87    
Minimum Humidity 21    
Precipitation  
Precipitation 0.00 in - - ()
Sea Level Pressure  
Sea Level Pressure 30.19 in    
Wind  
Wind Speed 5 mph (NNW)    
Max Wind Speed 12 mph    
Max Gust Speed -    
Visibility 10 miles    
Events      
Averages and records for this station are not official NWS values.
T = Trace of Precipitation, MM = Missing Value Source: NWS Daily Summary

Daily Weather History Graph

Daily Weather History Graph

Search for Another Location

Airport:

Trip Planner

Search our weather history database for the weather conditions in past years. The results will help you decide how hot, cold, wet, or windy it might be!

Date:

Astronomy

Feb. 20, 2013 Rise Set
Actual Time 7:17 AM EST 6:30 PM EST
Civil Twilight 6:52 AM EST 6:55 PM EST
Nautical Twilight 6:23 AM EST 7:23 PM EST
Astronomical Twilight 5:55 AM EST 7:52 PM EST
Moon 2:01 PM EST (2/20) 3:26 AM EST (2/20)
Length of Visible Light 12h 03m
Length of Day
11h 13m
Waxing Gibbous, 76% of the Moon is Illuminated
Feb 20
Waxing Gibbous
Feb 25
Full
Mar 4
Last Quarter
Mar 11
New
Mar 19
First Quarter

Hourly Weather History & Observations

Time (EST) Temp. Windchill Dew Point Humidity Pressure Visibility Wind Dir Wind Speed Gust Speed Precip Events Conditions
12:58 AM 38.3 °F 33.2 °F 25.5 °F 60% 30.21 in 10.0 mi NW 6.9 mph - N/A   Clear
1:58 AM 36.3 °F 30.8 °F 22.6 °F 58% 30.19 in 10.0 mi NNW 6.9 mph - N/A   Clear
2:58 AM 35.4 °F 31.5 °F 21.9 °F 58% 30.19 in 10.0 mi NNW 4.6 mph - N/A   Clear
3:58 AM 34.5 °F 30.4 °F 23.0 °F 63% 30.19 in 10.0 mi WNW 4.6 mph - N/A   Clear
4:58 AM 32.4 °F 26.0 °F 21.6 °F 64% 30.20 in 10.0 mi NNW 6.9 mph - N/A   Clear
5:58 AM 29.8 °F 23.9 °F 21.4 °F 71% 30.22 in 10.0 mi WNW 5.8 mph - N/A   Clear
6:58 AM 30.2 °F - 21.9 °F 71% 30.25 in 10.0 mi Calm Calm - N/A   Scattered Clouds
7:58 AM 30.4 °F - 23.9 °F 77% 30.25 in 10.0 mi Calm Calm - N/A   Scattered Clouds
8:58 AM 39.0 °F - 23.5 °F 54% 30.25 in 10.0 mi North 1.2 mph - N/A   Mostly Cloudy
9:58 AM 43.7 °F 39.7 °F 20.5 °F 40% 30.23 in 10.0 mi North 6.9 mph - N/A   Clear
10:58 AM 48.2 °F - 18.7 °F 31% 30.25 in 10.0 mi NNW 8.1 mph - N/A   Clear
11:55 AM 51.8 °F - 17.6 °F 26% 30.20 in 10.0 mi NNW 8.1 mph - N/A   Clear
12:55 PM 53.6 °F - 19.4 °F 26% 30.18 in 10.0 mi Variable 5.8 mph - N/A   Clear
1:55 PM 57.2 °F - 19.4 °F 23% 30.16 in 10.0 mi Variable 4.6 mph - N/A   Clear
2:58 PM 58.8 °F - 18.3 °F 21% 30.15 in 10.0 mi North 9.2 mph - N/A   Partly Cloudy
3:58 PM 58.5 °F - 20.3 °F 23% 30.15 in 10.0 mi NNW 10.4 mph - N/A   Scattered Clouds
4:58 PM 57.2 °F - 19.0 °F 23% 30.15 in 10.0 mi NNW 11.5 mph - N/A   Mostly Cloudy
5:58 PM 54.9 °F - 17.1 °F 23% 30.14 in 10.0 mi NNW 8.1 mph - N/A   Overcast
6:58 PM 51.4 °F - 23.4 °F 33% 30.14 in 10.0 mi Calm Calm - N/A   Overcast
7:58 PM 46.4 °F 45.2 °F 28.6 °F 50% 30.17 in 10.0 mi NNW 3.5 mph - N/A   Overcast
8:58 PM 41.2 °F - 27.9 °F 59% 30.15 in 10.0 mi Calm Calm - N/A   Clear
9:58 PM 38.8 °F - 28.6 °F 67% 30.17 in 10.0 mi NNW 1.2 mph - N/A   Clear
10:58 PM 36.5 °F - 27.1 °F 69% 30.17 in 10.0 mi Calm Calm - N/A   Clear
11:58 PM 32.2 °F - 28.6 °F 87% 30.13 in 10.0 mi Calm Calm - N/A   Clear